Home  > Rebate Center > Cooking >  Color: Stainless Look >  Color: Custom Colors

Rebate Center: Custom Colors, Stainless Look Cooking

Sort:

  • Mail In Rebates
  • Instant Savings
  • Free Delivery
  • Product Reviews
  • Top Ratings
  • Quick Ship

Displaying 1 - 20 of 74 Products 20 40 50 products per page  

1

2

3

4

Samsung ME21K7010D

2.1 cu. ft. Over-the-Range Microwave with 1,000 Cooking Watts, 10 Power Levels, 400 CFM, PowerGrill, Sensor Cooking, Cooking Presets, Eco Mode, Turntable On/Off and Glass Touch Controls

ME21K7010DS Stainless 08/24/2016 - 09/27/2016 Save $200 Download
BlueStar RNB Series RNB366BV2

36 Inch Pro-Style Gas Range with 5.0 cu. ft. Convection Oven, 6 Open Burners, 22,000 BTU Power Burners, Simmer Burner and Infrared Broiler

RNB366BV2   01/01/2016 - 12/31/2016 Save $500 Download
BlueStar RNB Series RNB304BV2

30 Inch Freestanding Gas Range with 4 Open Burners, UltraNova Burners, Precise Simmer Burner, Convection Oven, Gliding Oven Rack, 750 Color Options and Manual Clean

RNB304BV2   01/01/2016 - 12/31/2016 Save $500 Download
BlueStar Platinum Series BSP366B

36 Inch Pro-Style Gas Range with 4.6 cu. ft. PowR Convection Oven, 6 Open Burners, PrimaNova 25,000 BTU Burners, Simmer Burner, Infrared Boiler, Continuous Grates, Interchangeable Griddle and Charbroiler

BSP366B   01/01/2016 - 12/31/2016 Save $500 Download
Frigidaire FFMV162L

1.6 cu. ft. Over-the-Range Microwave with 1,000 Watts, 10 Power Levels, Two Speed 300 CFM Venting System, Ready Select Controls, Fits-More Capacity, Multi-Stage Cooking, Glass Turntable and Convertible to Non-Ducted Operation

FFMV162LM SilverMist 09/07/2016 - 09/30/2016 Save up to $575 Download
Whirlpool WMH31017A

Over-the-Range Microwave Oven with 1.7 cu. ft. Capacity, 1,000 Watts, 220 CFM Venting System, 2-Speed Fan, 2 Stage Cooking, Quick Touch Settings, Blue LED Display and Incandescent Cooktop Lighting

WMH31017AD Universal Silver 09/07/2016 - 09/30/2016 Save up to $400 Download
BlueStar Incline Series BSINCLINESS

Wall Mount Hood with 3-Speed Blower Options, 750 Color Options, Hidden Controls, Dishwasher Safe Baffle Filters, Halogen Lamps and Reversible Top/Rear Exhaust

BSINCL30SS 30" Width 01/01/2016 - 12/31/2016 Save $500 Download
BSINCL36SS 36" Width 01/01/2016 - 12/31/2016 Save $500 Download
BSINCL42SS 42" Width 01/01/2016 - 12/31/2016 Save $500 Download
BSINCL48SS 48" Width 01/01/2016 - 12/31/2016 Save $500 Download
BSINCL54SS 54" Width 01/01/2016 - 12/31/2016 Save $500 Download
BSINCL60SS 60" Width 01/01/2016 - 12/31/2016 Save $500 Download
BSINCL66SS 66" Width 01/01/2016 - 12/31/2016 Save $500 Download
BlueStar RNB Series RNB364GV2

36 Inch Pro-Style Gas Range with 4 Open Burners, 22,000 BTU Power Burners, Simmer Burner, 5.0 cu. ft. Convection Oven, Manual Clean, Infrared Broiler and 12 Inch Griddle

RNB364GV2 Custom Colors 01/01/2016 - 12/31/2016 Save $500 Download
BlueStar Manhattan Series BSMNHTTNISS

Island Hood with 3-Speed Blower Options, 750 Color Options, Hidden Controls, Dishwasher Safe Baffle Filters, Halogen Lamps and Top Discharge

BSMANHI24SS 24" Width 01/01/2016 - 12/31/2016 Save $500 Download
BSMANHI30SS 30" Width 01/01/2016 - 12/31/2016 Save $500 Download
BSMANHI36SS 36" Width 01/01/2016 - 12/31/2016 Save $500 Download
BSMANHI42SS 42" Width 01/01/2016 - 12/31/2016 Save $500 Download
BSMANHI48SS 48" Width 01/01/2016 - 12/31/2016 Save $500 Download
BSMANHI54SS 54" Width 01/01/2016 - 12/31/2016 Save $500 Download
BSMANHI60SS 60" Width 01/01/2016 - 12/31/2016 Save $500 Download
BSMANHI66SS 66" Width 01/01/2016 - 12/31/2016 Save $500 Download
BlueStar Wrangler Series BSWRANGLERSS

Wall Mount Hood with 3-Speed Blower Options, 750 Color Options, Hidden Controls, Dishwasher Safe Baffle Filters, Halogen Lamps and Reversible Top/Rear Exhaust

BSWRAN30SS 30" Width 01/01/2016 - 12/31/2016 Save $500 Download
BSWRAN36SS 36" Width 01/01/2016 - 12/31/2016 Save $500 Download
BSWRAN42SS 42" Width 01/01/2016 - 12/31/2016 Save $500 Download
BSWRAN48SS 48" Width 01/01/2016 - 12/31/2016 Save $500 Download
BSWRAN54SS 54" Width 01/01/2016 - 12/31/2016 Save $500 Download
BSWRAN60SS 60" Width 01/01/2016 - 12/31/2016 Save $500 Download
BSWRAN66SS 66" Width 01/01/2016 - 12/31/2016 Save $500 Download
BlueStar Laramie Series BSLARAMIESS

Wall Mount Hood with 3-Speed Blower Options, 750 Color Options, Hidden Controls, Dishwasher Safe Baffle Filters, Halogen Lamps and Reversible Top/Rear Exhaust

BSLARA30SS 30" Width 01/01/2016 - 12/31/2016 Save $500 Download
BSLARA36SS 36" Width 01/01/2016 - 12/31/2016 Save $500 Download
BSLARA42SS 42" Width 01/01/2016 - 12/31/2016 Save $500 Download
BSLARA48SS 48" Width 01/01/2016 - 12/31/2016 Save $500 Download
BSLARA54SS 54" Width 01/01/2016 - 12/31/2016 Save $500 Download
BSLARA60SS 60" Width 01/01/2016 - 12/31/2016 Save $500 Download
BSLARA66SS 66" Width 01/01/2016 - 12/31/2016 Save $500 Download
BlueStar RNB Series RNB484CBV2

48 Inch Freestanding Gas Range with 4 Open Burners, 24 Inch Charbroil Grill, UltraNova Burners, Precise Simmer Burner, 2 Convection Ovens, Gliding Oven Rack, 750 Color Options and Manual Clean

RNB484CBV2   01/01/2016 - 12/31/2016 Save $500 Download
BlueStar Manhattan Series BSMNHTTNSS

Wall Mount Hood with 3-Speed Blower Options, 750 Color Options, Hidden Controls, Dishwasher Safe Baffle Filters, Halogen Lamps and Top Discharge

BSMANH24SS 24" Width 01/01/2016 - 12/31/2016 Save $500 Download
BSMANH30SS 30" Width 01/01/2016 - 12/31/2016 Save $500 Download
BSMANH36SS 36" Width 01/01/2016 - 12/31/2016 Save $500 Download
BSMANH42SS 42" Width 01/01/2016 - 12/31/2016 Save $500 Download
BSMANH48SS 48" Width 01/01/2016 - 12/31/2016 Save $500 Download
BSMANH54SS 54" Width 01/01/2016 - 12/31/2016 Save $500 Download
BSMANH60SS 60" Width 01/01/2016 - 12/31/2016 Save $500 Download
BSMANH66SS 66" Width 01/01/2016 - 12/31/2016 Save $500 Download
Dacor Renaissance ER30DSR

30 Inch Pro-Style Dual Fuel Range with 4 Sealed Burners, 18,000 BTU, 3.9 cu. ft. Oven Capacity, 3,500 W Broil Element, Pure Convection System and Perma-Flame Technology

ER30DSRCLP Color Match, Liquid Propane 01/01/2016 - 12/31/2016 Save Up to $3347 Instantly Download
ER30DSRCLPH Color Match, Liquid Propane High Altitude 01/01/2016 - 12/31/2016 Save Up to $3347 Instantly Download
ER30DSRCNG Color Match, Natural Gas 01/01/2016 - 12/31/2016 Save Up to $3347 Instantly Download
ER30DSRCNGH Color Match, Natural Gas High Altitude 01/01/2016 - 12/31/2016 Save Up to $3347 Instantly Download
BlueStar RNB Series RNB484FTBV2

48 Inch Freestanding Gas Range with 4 Open Burners, 24 Inch French Top, UltraNova Burners, Precise Simmer Burner, 2 Convection Ovens, Gliding Oven Rack, 750 Color Options and Manual Clean

RNB484FTBV2   01/01/2016 - 12/31/2016 Save $500 Download
BlueStar Proline Series BSPROLINE

Wall Mount Hood with 3-Speed Blower Options, Stainless Steel Construction, 750 Color Options, Hidden Controls, Dishwasher-Safe Filters, Dimming Halogen Lamps and Reversible Top/Rear Exhaust

BSPL24240TS 24" Width 01/01/2016 - 12/31/2016 Save $500 Download
BSPL30240TS 30" Width 01/01/2016 - 12/31/2016 Save $500 Download
BSPL36240TS 36" Width 01/01/2016 - 12/31/2016 Save $500 Download
BSPL42240TS 42" Width 01/01/2016 - 12/31/2016 Save $500 Download
BSPL48240TS 48" Width 01/01/2016 - 12/31/2016 Save $500 Download
BSPL54240TS 54" Width 01/01/2016 - 12/31/2016 Save $500 Download
BSPL60240TS 60" Width 01/01/2016 - 12/31/2016 Save $500 Download
BSPL66240TS 66" Width 01/01/2016 - 12/31/2016 Save $500 Download
BlueStar Bonanza Series BSBONANZASS

Wall Mount Hood with 3-Speed Blower Options, 750 Color Options, Hidden Controls, Dishwasher Safe Baffle Filters, Halogen Lamps and Reversible Top/Rear Exhaust

BSBONZ30SS 30" Width 01/01/2016 - 12/31/2016 Save $500 Download
BSBONZ36SS 36" Width 01/01/2016 - 12/31/2016 Save $500 Download
BSBONZ42SS 42" Width 01/01/2016 - 12/31/2016 Save $500 Download
BSBONZ48SS 48" Width 01/01/2016 - 12/31/2016 Save $500 Download
BSBONZ54SS 54" Width 01/01/2016 - 12/31/2016 Save $500 Download
BSBONZ60SS 60" Width 01/01/2016 - 12/31/2016 Save $500 Download
BSBONZ66SS 66" Width 01/01/2016 - 12/31/2016 Save $500 Download
BlueStar Platinum Series BSP244B

24 Inch Pro-Style Gas Range with 4 Open Burners, PrimaNova 25,000 BTU Burners, PowR Convection Oven, Infrared Boiler and Interchangeable Griddle Charbroiler

BSP244B Custom Colors 01/01/2016 - 12/31/2016 Save $500 Download
Dacor Renaissance RNO127

27 Inch Single Electric Wall Oven with 4.5 cu. ft. Convection Oven, 6 Cooking Modes, Steam Self-Clean, Hidden Bake Element and RapidHeat Broil Element

RNO127C208V Color Match, Epicure Handle, 208V 01/01/2016 - 12/31/2016 Save Up to $3347 Instantly Download
RNO127C Color Match with Epicure Handle 01/01/2016 - 12/31/2016 Save Up to $3347 Instantly Download
RNO127FC Color Match with Flush Handle 01/01/2016 - 12/31/2016 Save Up to $3347 Instantly Download
Dacor Renaissance RNRP30G

30 Inch Slide-in Gas Range with 1 SimmerSear Burner, 3 Standard Burners, 5.2 cu. ft. Convection Oven, 2 GlideRacks, 1 Chrome Rack, Infrared Ceramic Broiler, Illumina Knob Controls and Self-Cleaning Mode

RNRP30GCLP Liquid Propane, Custom Color 01/01/2016 - 12/31/2016 Save Up to $3347 Instantly Download
RNRP30GCLPH Liquid Propane, Custom Color, High Altitude 01/01/2016 - 12/31/2016 Save Up to $3347 Instantly Download
RNRP30GCNG Natural Gas, Custom Color 01/01/2016 - 12/31/2016 Save Up to $3347 Instantly Download
RNRP30GCNGH Natural Gas, Custom Color, High Altitude 01/01/2016 - 12/31/2016 Save Up to $3347 Instantly Download

Sort:

Displaying 1 - 20 of 74 Products 20 40 50 products per page  

1

2

3

4

Expand Your Results

Remove Category:

Remove Color:

Are you a builder
Quick LookQuick Look